,,,PA_Meas_PMT16A,,PR_Meas_QMR101_102,,RH_Meas_QMH101,,SR_Meas_QMS101,,TA_Meas_QMH101,,GenWind,,GenWind,
date,time,status,PA,status,PR,status,RH,status,SR,status,TA,status,DirAvg,status,SpdAvg,
2010-11-17, 00:00:05,VALID,1010.14,VALID,0,VALID,103.603,VALID,0.105969,VALID,23.8694,VALID,258,VALID,0,
2010-11-17, 00:01:05,VALID,1010.1,VALID,0,VALID,103.596,VALID,0.105969,VALID,23.8481,VALID,258,VALID,0,
2010-11-17, 00:02:05,VALID,1010.05,VALID,0,VALID,103.634,VALID,0.105969,VALID,23.8676,VALID,258,VALID,0,
2010-11-17, 00:03:05,VALID,1010.05,VALID,0,VALID,103.634,VALID,0,VALID,23.8481,VALID,258,VALID,0.127734,
2010-11-17, 00:04:05,VALID,1010,VALID,0,VALID,103.649,VALID,0.105969,VALID,23.8481,VALID,258,VALID,0,
2010-11-17, 00:05:05,VALID,1009.96,VALID,0,VALID,103.672,VALID,0.105969,VALID,23.8694,VALID,258,VALID,0,
2010-11-17, 00:06:05,VALID,1009.92,VALID,0,VALID,103.672,VALID,0,VALID,23.8694,VALID,258,VALID,0,
2010-11-17, 00:07:05,VALID,1009.91,VALID,0,VALID,103.68,VALID,0,VALID,23.8499,VALID,258,VALID,0,
2010-11-17, 00:08:05,VALID,1009.92,VALID,0,VALID,103.68,VALID,0.105969,VALID,23.8481,VALID,258,VALID,0.0320312,
2010-11-17, 00:09:05,VALID,1009.91,VALID,0,VALID,103.703,VALID,0,VALID,23.8694,VALID,258,VALID,0,
2010-11-17, 00:10:05,VALID,1009.93,VALID,0,VALID,103.695,VALID,0.105969,VALID,23.8286,VALID,258,VALID,0,
2010-11-17, 00:11:05,VALID,1009.95,VALID,0,VALID,103.748,VALID,0.105969,VALID,23.8694,VALID,258,VALID,0.20625,
2010-11-17, 00:12:05,VALID,1009.97,VALID,0,VALID,103.726,VALID,0,VALID,23.8499,VALID,258,VALID,0.144531,
2010-11-17, 00:13:05,VALID,1010.01,VALID,0,VALID,103.741,VALID,0.105969,VALID,23.8481,VALID,258,VALID,0,
2010-11-17, 00:14:05,VALID,1010,VALID,0,VALID,103.748,VALID,0.105969,VALID,23.8481,VALID,258,VALID,0,
2010-11-17, 00:15:05,VALID,1009.99,VALID,0,VALID,103.748,VALID,0.105969,VALID,23.8499,VALID,258,VALID,0.00195313,
2010-11-17, 00:16:05,VALID,1009.94,VALID,0,VALID,103.748,VALID,0.105969,VALID,23.8286,VALID,258,VALID,0.439844,
2010-11-17, 00:17:05,VALID,1009.92,VALID,0,VALID,103.741,VALID,0.105969,VALID,23.8481,VALID,258,VALID,0.263672,
2010-11-17, 00:18:05,VALID,1009.9,VALID,0,VALID,103.779,VALID,0,VALID,23.8481,VALID,258,VALID,0,
2010-11-17, 00:19:05,VALID,1009.88,VALID,0,VALID,103.771,VALID,0.105969,VALID,23.8481,VALID,258,VALID,0,
2010-11-17, 00:20:05,VALID,1009.89,VALID,0,VALID,103.756,VALID,0.105969,VALID,23.8286,VALID,258,VALID,0.0179687,
2010-11-17, 00:21:05,VALID,1009.89,VALID,0,VALID,103.764,VALID,0.105969,VALID,23.8499,VALID,258,VALID,0.251953,
2010-11-17, 00:22:05,VALID,1009.89,VALID,0,VALID,103.771,VALID,0.105969,VALID,23.8286,VALID,258,VALID,0.0910156,
2010-11-17, 00:23:05,VALID,1009.87,VALID,0,VALID,103.771,VALID,0,VALID,23.8499,VALID,258,VALID,0,
2010-11-17, 00:24:05,VALID,1009.85,VALID,0,VALID,103.764,VALID,0,VALID,23.8712,VALID,258,VALID,0,
2010-11-17, 00:25:05,VALID,1009.82,VALID,0,VALID,103.764,VALID,0,VALID,23.8499,VALID,258,VALID,0,
2010-11-17, 00:26:05,VALID,1009.79,VALID,0,VALID,103.779,VALID,0,VALID,23.8304,VALID,258,VALID,0,
2010-11-17, 00:27:05,VALID,1009.81,VALID,0,VALID,103.771,VALID,0,VALID,23.8517,VALID,258,VALID,0,
2010-11-17, 00:28:05,VALID,1009.79,VALID,0,VALID,103.764,VALID,0,VALID,23.8499,VALID,258,VALID,0,
2010-11-17, 00:29:05,VALID,1009.79,VALID,0,VALID,103.771,VALID,0,VALID,23.8712,VALID,258,VALID,0,
2010-11-17, 00:30:05,VALID,1009.77,VALID,0,VALID,103.771,VALID,0,VALID,23.8499,VALID,258,VALID,0,
2010-11-17, 00:31:05,VALID,1009.75,VALID,0,VALID,103.779,VALID,0,VALID,23.8499,VALID,258,VALID,0,
2010-11-17, 00:32:05,VALID,1009.78,VALID,0,VALID,103.764,VALID,0,VALID,23.8517,VALID,258,VALID,0,
2010-11-17, 00:33:05,VALID,1009.79,VALID,0,VALID,103.779,VALID,0,VALID,23.8109,VALID,258,VALID,0,
2010-11-17, 00:34:05,VALID,1009.81,VALID,0,VALID,103.756,VALID,0,VALID,23.7914,VALID,258,VALID,0,
2010-11-17, 00:35:05,VALID,1009.78,VALID,0,VALID,103.809,VALID,0,VALID,23.7914,VALID,258,VALID,0,
2010-11-17, 00:36:05,VALID,1009.77,VALID,0,VALID,103.802,VALID,0,VALID,23.772,VALID,258,VALID,0,
2010-11-17, 00:37:05,VALID,1009.76,VALID,0,VALID,103.787,VALID,0,VALID,23.7738,VALID,303,VALID,0,
2010-11-17, 00:38:05,VALID,1009.74,VALID,0,VALID,103.756,VALID,0,VALID,23.7507,VALID,303,VALID,0,
2010-11-17, 00:39:05,VALID,1009.7,VALID,0,VALID,103.779,VALID,0.105969,VALID,23.7507,VALID,303,VALID,0,
2010-11-17, 00:40:05,VALID,1009.7,VALID,0,VALID,103.779,VALID,0,VALID,23.7312,VALID,303,VALID,0,
2010-11-17, 00:41:05,VALID,1009.67,VALID,0,VALID,103.756,VALID,0.105969,VALID,23.7525,VALID,303,VALID,0,
2010-11-17, 00:42:05,VALID,1009.63,VALID,0,VALID,103.733,VALID,0.105969,VALID,23.7507,VALID,303,VALID,0,
2010-11-17, 00:43:05,VALID,1009.59,VALID,0,VALID,103.748,VALID,0,VALID,23.772,VALID,303,VALID,0,
2010-11-17, 00:44:05,VALID,1009.6,VALID,0,VALID,103.733,VALID,0,VALID,23.7701,VALID,303,VALID,0,
2010-11-17, 00:45:05,VALID,1009.6,VALID,0,VALID,103.741,VALID,0,VALID,23.772,VALID,303,VALID,0,
2010-11-17, 00:46:05,VALID,1009.62,VALID,0,VALID,103.703,VALID,0,VALID,23.7896,VALID,303,VALID,0,
2010-11-17, 00:47:05,VALID,1009.62,VALID,0,VALID,103.703,VALID,0,VALID,23.8109,VALID,303,VALID,0,
2010-11-17, 00:48:05,VALID,1009.63,VALID,0,VALID,103.726,VALID,0.105969,VALID,23.7896,VALID,303,VALID,0,
2010-11-17, 00:49:05,VALID,1009.65,VALID,0,VALID,103.726,VALID,0,VALID,23.7896,VALID,303,VALID,0,
2010-11-17, 00:50:05,VALID,1009.66,VALID,0,VALID,103.71,VALID,0,VALID,23.8109,VALID,303,VALID,0,
2010-11-17, 00:51:05,VALID,1009.65,VALID,0,VALID,103.71,VALID,0,VALID,23.7896,VALID,303,VALID,0,
2010-11-17, 00:52:05,VALID,1009.68,VALID,0,VALID,103.748,VALID,0,VALID,23.7896,VALID,303,VALID,0,
2010-11-17, 00:53:05,VALID,1009.67,VALID,0,VALID,103.726,VALID,0.105969,VALID,23.7914,VALID,303,VALID,0,
2010-11-17, 00:54:05,VALID,1009.69,VALID,0,VALID,103.718,VALID,0,VALID,23.7914,VALID,303,VALID,0,
2010-11-17, 00:55:05,VALID,1009.69,VALID,0,VALID,103.718,VALID,0.105969,VALID,23.7701,VALID,303,VALID,0,
2010-11-17, 00:56:05,VALID,1009.68,VALID,0,VALID,103.741,VALID,0,VALID,23.7507,VALID,303,VALID,0,
2010-11-17, 00:57:05,VALID,1009.68,VALID,0,VALID,103.733,VALID,0.105969,VALID,23.7525,VALID,303,VALID,0,
2010-11-17, 00:58:05,VALID,1009.69,VALID,0,VALID,103.748,VALID,0.105969,VALID,23.733,VALID,303,VALID,0,
2010-11-17, 00:59:05,VALID,1009.73,VALID,0,VALID,103.748,VALID,0.105969,VALID,23.7135,VALID,303,VALID,0,
2010-11-17, 01:00:05,VALID,1009.75,VALID,0,VALID,103.718,VALID,0,VALID,23.694,VALID,303,VALID,0,
2010-11-17, 01:01:05,VALID,1009.79,VALID,0,VALID,103.687,VALID,0,VALID,23.6922,VALID,303,VALID,0,
2010-11-17, 01:02:05,VALID,1009.78,VALID,0,VALID,103.657,VALID,0,VALID,23.7312,VALID,142,VALID,0.716406,
2010-11-17, 01:03:05,VALID,1009.75,VALID,0,VALID,103.619,VALID,0,VALID,23.7507,VALID,144,VALID,0.516016,
2010-11-17, 01:04:05,VALID,1009.72,VALID,0,VALID,103.626,VALID,0.105969,VALID,23.7701,VALID,144,VALID,0.181641,
2010-11-17, 01:05:05,VALID,1009.65,VALID,0,VALID,103.611,VALID,0,VALID,23.8109,VALID,144,VALID,0,
2010-11-17, 01:06:05,VALID,1009.64,VALID,0,VALID,103.588,VALID,0.105969,VALID,23.7896,VALID,144,VALID,0,
2010-11-17, 01:07:05,VALID,1009.66,VALID,0,VALID,103.588,VALID,0,VALID,23.7896,VALID,144,VALID,0,
2010-11-17, 01:08:05,VALID,1009.67,VALID,0,VALID,103.642,VALID,0,VALID,23.7914,VALID,144,VALID,0.147266,
2010-11-17, 01:09:05,VALID,1009.74,VALID,0,VALID,103.634,VALID,0,VALID,23.772,VALID,142,VALID,0.280859,
2010-11-17, 01:10:05,VALID,1009.79,VALID,0,VALID,103.634,VALID,0,VALID,23.7525,VALID,142,VALID,0.516016,
2010-11-17, 01:11:05,VALID,1009.82,VALID,0,VALID,103.573,VALID,0,VALID,23.7914,VALID,114,VALID,0.821094,
2010-11-17, 01:12:05,VALID,1009.85,VALID,0,VALID,103.558,VALID,0,VALID,23.8322,VALID,107,VALID,0.623047,
2010-11-17, 01:13:05,VALID,1009.86,VALID,0,VALID,103.588,VALID,0,VALID,23.8109,VALID,107,VALID,0.675781,
2010-11-17, 01:14:05,VALID,1009.86,VALID,0,VALID,103.573,VALID,0,VALID,23.8517,VALID,107,VALID,0.442578,
2010-11-17, 01:15:05,VALID,1009.81,VALID,0,VALID,103.619,VALID,0,VALID,23.8304,VALID,107,VALID,0.596484,
2010-11-17, 01:16:05,VALID,1009.78,VALID,0,VALID,103.626,VALID,0,VALID,23.8304,VALID,107,VALID,0.278516,
2010-11-17, 01:17:05,VALID,1009.74,VALID,0,VALID,103.664,VALID,0,VALID,23.8304,VALID,71,VALID,0.521875,
2010-11-17, 01:18:05,VALID,1009.72,VALID,0,VALID,103.687,VALID,0,VALID,23.8322,VALID,71,VALID,0.692969,
2010-11-17, 01:19:05,VALID,1009.72,VALID,0,VALID,103.695,VALID,0,VALID,23.7914,VALID,71,VALID,0.406641,
2010-11-17, 01:20:05,VALID,1009.69,VALID,0,VALID,103.71,VALID,0,VALID,23.772,VALID,71,VALID,0.0078125,
2010-11-17, 01:21:05,VALID,1009.74,VALID,0,VALID,103.695,VALID,0,VALID,23.7914,VALID,71,VALID,0.0417969,
2010-11-17, 01:22:05,VALID,1009.68,VALID,0,VALID,103.695,VALID,0,VALID,23.772,VALID,86,VALID,0,
2010-11-17, 01:23:05,VALID,1009.74,VALID,0,VALID,103.703,VALID,0,VALID,23.772,VALID,86,VALID,0,
2010-11-17, 01:24:05,VALID,1009.73,VALID,0,VALID,103.687,VALID,0,VALID,23.8109,VALID,86,VALID,0,
2010-11-17, 01:25:05,VALID,1009.71,VALID,0,VALID,103.703,VALID,0,VALID,23.7914,VALID,86,VALID,0,
2010-11-17, 01:26:05,VALID,1009.69,VALID,0,VALID,103.695,VALID,0,VALID,23.8109,VALID,86,VALID,0,
2010-11-17, 01:27:05,VALID,1009.68,VALID,0,VALID,103.695,VALID,0,VALID,23.8109,VALID,86,VALID,0,
2010-11-17, 01:28:05,VALID,1009.65,VALID,0,VALID,103.68,VALID,0,VALID,23.8109,VALID,86,VALID,0,
2010-11-17, 01:29:05,VALID,1009.63,VALID,0,VALID,103.695,VALID,0,VALID,23.8109,VALID,86,VALID,0,
2010-11-17, 01:30:05,VALID,1009.63,VALID,0,VALID,103.71,VALID,0,VALID,23.8304,VALID,86,VALID,0,
2010-11-17, 01:31:05,VALID,1009.62,VALID,0,VALID,103.726,VALID,0,VALID,23.8304,VALID,86,VALID,0,
2010-11-17, 01:32:05,VALID,1009.63,VALID,0,VALID,103.71,VALID,0,VALID,23.8109,VALID,86,VALID,0,
2010-11-17, 01:33:05,VALID,1009.65,VALID,0,VALID,103.726,VALID,0,VALID,23.8109,VALID,86,VALID,0,
2010-11-17, 01:34:05,VALID,1009.62,VALID,0,VALID,103.756,VALID,0,VALID,23.8127,VALID,86,VALID,0,
2010-11-17, 01:35:05,VALID,1009.62,VALID,0,VALID,103.733,VALID,0,VALID,23.8322,VALID,86,VALID,0,
2010-11-17, 01:36:05,VALID,1009.6,VALID,0,VALID,103.741,VALID,0,VALID,23.8322,VALID,86,VALID,0,
2010-11-17, 01:37:05,VALID,1009.61,VALID,0,VALID,103.741,VALID,0,VALID,23.8109,VALID,86,VALID,0,
2010-11-17, 01:38:05,VALID,1009.6,VALID,0,VALID,103.733,VALID,0.105969,VALID,23.8304,VALID,86,VALID,0,
2010-11-17, 01:39:05,VALID,1009.59,VALID,0,VALID,103.726,VALID,0.105969,VALID,23.8286,VALID,86,VALID,0,
2010-11-17, 01:40:05,VALID,1009.56,VALID,0,VALID,103.718,VALID,0,VALID,23.8694,VALID,86,VALID,0,
2010-11-17, 01:41:05,VALID,1009.58,VALID,0,VALID,103.703,VALID,0,VALID,23.8481,VALID,86,VALID,0,
2010-11-17, 01:42:05,VALID,1009.54,VALID,0,VALID,103.71,VALID,0.105969,VALID,23.8694,VALID,86,VALID,0,
2010-11-17, 01:43:05,VALID,1009.5,VALID,0,VALID,103.703,VALID,0.105969,VALID,23.8481,VALID,86,VALID,0,
2010-11-17, 01:44:05,VALID,1009.5,VALID,0,VALID,103.695,VALID,0.105969,VALID,23.8463,VALID,86,VALID,0,
2010-11-17, 01:45:05,VALID,1009.51,VALID,0,VALID,103.733,VALID,0,VALID,23.8499,VALID,86,VALID,0,
2010-11-17, 01:46:05,VALID,1009.56,VALID,0,VALID,103.733,VALID,0,VALID,23.8499,VALID,86,VALID,0,
2010-11-17, 01:47:05,VALID,1009.57,VALID,0,VALID,103.741,VALID,0.105969,VALID,23.8304,VALID,86,VALID,0,
2010-11-17, 01:48:05,VALID,1009.55,VALID,0,VALID,103.718,VALID,0.105969,VALID,23.8286,VALID,86,VALID,0,
2010-11-17, 01:49:05,VALID,1009.56,VALID,0,VALID,103.718,VALID,0.105969,VALID,23.8091,VALID,86,VALID,0,
2010-11-17, 01:50:05,VALID,1009.58,VALID,0,VALID,103.733,VALID,0.105969,VALID,23.8091,VALID,86,VALID,0,
2010-11-17, 01:51:05,VALID,1009.56,VALID,0,VALID,103.726,VALID,0,VALID,23.8109,VALID,76,VALID,0,
2010-11-17, 01:52:05,VALID,1009.6,VALID,0,VALID,103.718,VALID,0.105969,VALID,23.7896,VALID,76,VALID,0,
2010-11-17, 01:53:05,VALID,1009.57,VALID,0,VALID,103.71,VALID,0,VALID,23.7896,VALID,76,VALID,0,
2010-11-17, 01:54:05,VALID,1009.59,VALID,0,VALID,103.695,VALID,0,VALID,23.8091,VALID,76,VALID,0,
2010-11-17, 01:55:05,VALID,1009.55,VALID,0,VALID,103.703,VALID,0,VALID,23.8091,VALID,76,VALID,0,
2010-11-17, 01:56:05,VALID,1009.56,VALID,0.5,VALID,103.687,VALID,0,VALID,23.8091,VALID,76,VALID,0,
2010-11-17, 01:57:05,VALID,1009.56,VALID,0,VALID,103.703,VALID,0,VALID,23.8304,VALID,79,VALID,0,
2010-11-17, 01:58:05,VALID,1009.57,VALID,0,VALID,103.71,VALID,0.105969,VALID,23.7896,VALID,79,VALID,0,
2010-11-17, 01:59:05,VALID,1009.56,VALID,0,VALID,103.695,VALID,0.105969,VALID,23.7896,VALID,79,VALID,0,
2010-11-17, 02:00:05,VALID,1009.55,VALID,0,VALID,103.726,VALID,0,VALID,23.7701,VALID,94,VALID,0.661328,
2010-11-17, 02:01:05,VALID,1009.56,VALID,0,VALID,103.71,VALID,0,VALID,23.7701,VALID,82,VALID,0.996484,
2010-11-17, 02:02:05,VALID,1009.54,VALID,0,VALID,103.726,VALID,0,VALID,23.7525,VALID,87,VALID,0.976172,
2010-11-17, 02:03:05,VALID,1009.53,VALID,0,VALID,103.733,VALID,0.105969,VALID,23.7312,VALID,90,VALID,1.23008,
2010-11-17, 02:04:05,VALID,1009.57,VALID,0,VALID,103.71,VALID,0,VALID,23.7525,VALID,82,VALID,1.1668,
2010-11-17, 02:05:05,VALID,1009.58,VALID,0,VALID,103.71,VALID,0.105969,VALID,23.7117,VALID,96,VALID,1.125,
2010-11-17, 02:06:05,VALID,1009.58,VALID,0,VALID,103.687,VALID,0.105969,VALID,23.7312,VALID,88,VALID,0.823047,
2010-11-17, 02:07:05,VALID,1009.56,VALID,0,VALID,103.687,VALID,0.105969,VALID,23.7117,VALID,74,VALID,0.828906,
2010-11-17, 02:08:05,VALID,1009.55,VALID,0,VALID,103.733,VALID,0.105969,VALID,23.6922,VALID,67,VALID,1.33398,
2010-11-17, 02:09:05,VALID,1009.52,VALID,0,VALID,103.748,VALID,0,VALID,23.6727,VALID,65,VALID,0.958594,
2010-11-17, 02:10:05,VALID,1009.51,VALID,0,VALID,103.733,VALID,0,VALID,23.6727,VALID,72,VALID,0.641797,
2010-11-17, 02:11:05,VALID,1009.52,VALID,0,VALID,103.71,VALID,0,VALID,23.6727,VALID,77,VALID,0.444531,
2010-11-17, 02:12:05,VALID,1009.52,VALID,0,VALID,103.718,VALID,0,VALID,23.6727,VALID,78,VALID,0.667188,
2010-11-17, 02:13:05,VALID,1009.54,VALID,0,VALID,103.71,VALID,0.105969,VALID,23.6727,VALID,78,VALID,0.186328,
2010-11-17, 02:14:05,VALID,1009.49,VALID,0,VALID,103.71,VALID,0,VALID,23.6745,VALID,78,VALID,0.196484,
2010-11-17, 02:15:05,VALID,1009.5,VALID,0,VALID,103.71,VALID,0.105969,VALID,23.6727,VALID,75,VALID,0.0957031,
2010-11-17, 02:16:05,VALID,1009.48,VALID,0,VALID,103.703,VALID,0.105969,VALID,23.6532,VALID,72,VALID,0.000390625,
2010-11-17, 02:17:05,VALID,1009.46,VALID,0,VALID,103.71,VALID,0.105969,VALID,23.655,VALID,55,VALID,0.009375,
2010-11-17, 02:18:05,VALID,1009.44,VALID,0,VALID,103.726,VALID,0.105969,VALID,23.6532,VALID,55,VALID,0.205859,
2010-11-17, 02:19:05,VALID,1009.41,VALID,0,VALID,103.68,VALID,0.105969,VALID,23.655,VALID,55,VALID,0.0410156,
2010-11-17, 02:20:05,VALID,1009.39,VALID,0.5,VALID,103.687,VALID,0,VALID,23.6338,VALID,76,VALID,0.232031,
2010-11-17, 02:21:05,VALID,1009.37,VALID,0,VALID,103.687,VALID,0,VALID,23.6338,VALID,76,VALID,0.0960938,
2010-11-17, 02:22:05,VALID,1009.35,VALID,0,VALID,103.71,VALID,0,VALID,23.6143,VALID,76,VALID,0.009375,
2010-11-17, 02:23:05,VALID,1009.33,VALID,0,VALID,103.703,VALID,0,VALID,23.6356,VALID,76,VALID,0,
2010-11-17, 02:24:05,VALID,1009.31,VALID,0,VALID,103.687,VALID,0,VALID,23.6356,VALID,76,VALID,0,
2010-11-17, 02:25:05,VALID,1009.27,VALID,0,VALID,103.687,VALID,0,VALID,23.6356,VALID,76,VALID,0,
2010-11-17, 02:26:05,VALID,1009.23,VALID,0,VALID,103.672,VALID,0,VALID,23.6356,VALID,76,VALID,0,
2010-11-17, 02:27:05,VALID,1009.22,VALID,0,VALID,103.642,VALID,0,VALID,23.655,VALID,76,VALID,0,
2010-11-17, 02:28:05,VALID,1009.22,VALID,0,VALID,103.649,VALID,0,VALID,23.655,VALID,76,VALID,0,
2010-11-17, 02:29:05,VALID,1009.2,VALID,0,VALID,103.642,VALID,0,VALID,23.655,VALID,76,VALID,0,
2010-11-17, 02:30:05,VALID,1009.18,VALID,0,VALID,103.619,VALID,0,VALID,23.655,VALID,76,VALID,0,
2010-11-17, 02:31:05,VALID,1009.2,VALID,0.5,VALID,103.611,VALID,0,VALID,23.6958,VALID,76,VALID,0,
2010-11-17, 02:32:05,VALID,1009.2,VALID,0,VALID,103.626,VALID,0,VALID,23.6745,VALID,61,VALID,0.0679687,
2010-11-17, 02:33:05,VALID,1009.19,VALID,0,VALID,103.588,VALID,0,VALID,23.6745,VALID,61,VALID,0,
2010-11-17, 02:34:05,VALID,1009.19,VALID,0,VALID,103.558,VALID,0,VALID,23.694,VALID,61,VALID,0,
2010-11-17, 02:35:05,VALID,1009.19,VALID,0,VALID,103.565,VALID,0,VALID,23.7135,VALID,61,VALID,0,
2010-11-17, 02:36:05,VALID,1009.21,VALID,0,VALID,103.573,VALID,0,VALID,23.7135,VALID,61,VALID,0,
2010-11-17, 02:37:05,VALID,1009.21,VALID,0,VALID,103.558,VALID,0,VALID,23.7135,VALID,61,VALID,0,
2010-11-17, 02:38:05,VALID,1009.24,VALID,0,VALID,103.565,VALID,0,VALID,23.7135,VALID,61,VALID,0,
2010-11-17, 02:39:05,VALID,1009.23,VALID,0,VALID,103.558,VALID,0,VALID,23.7117,VALID,61,VALID,0.167969,
2010-11-17, 02:40:05,VALID,1009.23,VALID,0.5,VALID,103.504,VALID,0.105969,VALID,23.7117,VALID,61,VALID,0.241406,
2010-11-17, 02:41:05,VALID,1009.26,VALID,0,VALID,103.542,VALID,0.105969,VALID,23.6922,VALID,61,VALID,0.332422,
2010-11-17, 02:42:05,VALID,1009.26,VALID,0,VALID,103.573,VALID,0.105969,VALID,23.6922,VALID,61,VALID,0,
2010-11-17, 02:43:05,VALID,1009.27,VALID,0,VALID,103.565,VALID,0,VALID,23.6532,VALID,61,VALID,0,
2010-11-17, 02:44:04,VALID,1009.26,VALID,0,VALID,103.573,VALID,0,VALID,23.6338,VALID,61,VALID,0.0996094,
2010-11-17, 02:45:04,VALID,1009.28,VALID,0,VALID,103.542,VALID,0.105969,VALID,23.6338,VALID,61,VALID,0.412891,
2010-11-17, 02:46:04,VALID,1009.33,VALID,0.5,VALID,103.527,VALID,0,VALID,23.6532,VALID,65,VALID,0.396094,
2010-11-17, 02:47:04,VALID,1009.32,VALID,0,VALID,103.512,VALID,0.105969,VALID,23.6532,VALID,88,VALID,0.126953,
2010-11-17, 02:48:04,VALID,1009.33,VALID,0,VALID,103.489,VALID,0,VALID,23.6532,VALID,88,VALID,0,
2010-11-17, 02:49:04,VALID,1009.35,VALID,0,VALID,103.466,VALID,0,VALID,23.6745,VALID,88,VALID,0,
2010-11-17, 02:50:04,VALID,1009.37,VALID,0,VALID,103.474,VALID,0.105969,VALID,23.6532,VALID,88,VALID,0,
2010-11-17, 02:51:04,VALID,1009.39,VALID,0,VALID,103.466,VALID,0.105969,VALID,23.6532,VALID,88,VALID,0,
2010-11-17, 02:52:04,VALID,1009.37,VALID,0,VALID,103.481,VALID,0,VALID,23.6532,VALID,88,VALID,0,
2010-11-17, 02:53:04,VALID,1009.42,VALID,0.5,VALID,103.436,VALID,0,VALID,23.655,VALID,88,VALID,0,
2010-11-17, 02:54:04,VALID,1009.41,VALID,0,VALID,103.443,VALID,0,VALID,23.6532,VALID,88,VALID,0,
2010-11-17, 02:55:04,VALID,1009.4,VALID,0,VALID,103.42,VALID,0.105969,VALID,23.6532,VALID,88,VALID,0,
2010-11-17, 02:56:04,VALID,1009.41,VALID,0,VALID,103.39,VALID,0,VALID,23.694,VALID,88,VALID,0,
2010-11-17, 02:57:04,VALID,1009.4,VALID,0,VALID,103.398,VALID,0,VALID,23.6727,VALID,58,VALID,0.238672,
2010-11-17, 02:58:04,VALID,1009.42,VALID,0,VALID,103.413,VALID,0,VALID,23.6727,VALID,19,VALID,0.283984,
2010-11-17, 02:59:04,VALID,1009.35,VALID,0,VALID,103.443,VALID,0,VALID,23.6338,VALID,58,VALID,0.259375,
2010-11-17, 03:00:04,VALID,1009.36,VALID,0.5,VALID,103.443,VALID,0,VALID,23.6143,VALID,58,VALID,0.315625,
2010-11-17, 03:01:04,VALID,1009.33,VALID,0,VALID,103.436,VALID,0.105969,VALID,23.5948,VALID,58,VALID,0,
2010-11-17, 03:02:04,VALID,1009.3,VALID,0,VALID,103.42,VALID,0,VALID,23.6161,VALID,58,VALID,0,
2010-11-17, 03:03:04,VALID,1009.3,VALID,0,VALID,103.405,VALID,0,VALID,23.6356,VALID,58,VALID,0,
2010-11-17, 03:04:04,VALID,1009.29,VALID,0,VALID,103.405,VALID,0.105969,VALID,23.6161,VALID,46,VALID,0.121875,
2010-11-17, 03:05:04,VALID,1009.27,VALID,0,VALID,103.39,VALID,0.105969,VALID,23.5753,VALID,46,VALID,0,
2010-11-17, 03:06:04,VALID,1009.24,VALID,0.5,VALID,103.367,VALID,0.105969,VALID,23.5753,VALID,46,VALID,0,
2010-11-17, 03:07:04,VALID,1009.25,VALID,0,VALID,103.352,VALID,0,VALID,23.6161,VALID,46,VALID,0,
2010-11-17, 03:08:04,VALID,1009.23,VALID,0,VALID,103.352,VALID,0,VALID,23.6161,VALID,46,VALID,0,
2010-11-17, 03:09:04,VALID,1009.23,VALID,0,VALID,103.352,VALID,0.105969,VALID,23.5753,VALID,46,VALID,0,
2010-11-17, 03:10:04,VALID,1009.24,VALID,0.5,VALID,103.352,VALID,0,VALID,23.5753,VALID,46,VALID,0,
2010-11-17, 03:11:04,VALID,1009.19,VALID,0,VALID,103.337,VALID,0.105969,VALID,23.5753,VALID,46,VALID,0,
2010-11-17, 03:12:04,VALID,1009.22,VALID,0,VALID,103.321,VALID,0,VALID,23.5753,VALID,46,VALID,0,
2010-11-17, 03:13:04,VALID,1009.22,VALID,0,VALID,103.321,VALID,0,VALID,23.5753,VALID,46,VALID,0.124609,
2010-11-17, 03:14:04,VALID,1009.21,VALID,0,VALID,103.321,VALID,0,VALID,23.5966,VALID,46,VALID,0,
2010-11-17, 03:15:04,VALID,1009.2,VALID,0.5,VALID,103.291,VALID,0,VALID,23.5753,VALID,46,VALID,0,
2010-11-17, 03:16:04,VALID,1009.21,VALID,0,VALID,103.283,VALID,0.105969,VALID,23.5753,VALID,7,VALID,0.173828,
2010-11-17, 03:17:04,VALID,1009.19,VALID,0,VALID,103.291,VALID,0.105969,VALID,23.5753,VALID,355,VALID,0.182812,
2010-11-17, 03:18:04,VALID,1009.22,VALID,0,VALID,103.253,VALID,0,VALID,23.5966,VALID,355,VALID,0.195313,
2010-11-17, 03:19:04,VALID,1009.19,VALID,0,VALID,103.253,VALID,0,VALID,23.6161,VALID,355,VALID,0,
2010-11-17, 03:20:04,VALID,1009.2,VALID,0,VALID,103.253,VALID,0.105969,VALID,23.5753,VALID,355,VALID,0.000390625,
2010-11-17, 03:21:04,VALID,1009.18,VALID,0.5,VALID,103.283,VALID,0,VALID,23.5558,VALID,355,VALID,0,
2010-11-17, 03:22:04,VALID,1009.16,VALID,0,VALID,103.268,VALID,0,VALID,23.5576,VALID,355,VALID,0,
2010-11-17, 03:23:04,VALID,1009.16,VALID,0,VALID,103.245,VALID,0,VALID,23.5771,VALID,355,VALID,0,
2010-11-17, 03:24:04,VALID,1009.12,VALID,0,VALID,103.245,VALID,0,VALID,23.5576,VALID,355,VALID,0,
2010-11-17, 03:25:04,VALID,1009.12,VALID,0,VALID,103.237,VALID,0,VALID,23.5576,VALID,355,VALID,0,
2010-11-17, 03:26:04,VALID,1009.14,VALID,0,VALID,103.207,VALID,0,VALID,23.5576,VALID,355,VALID,0,
2010-11-17, 03:27:04,VALID,1009.15,VALID,0,VALID,103.215,VALID,0,VALID,23.5576,VALID,355,VALID,0,
2010-11-17, 03:28:04,VALID,1009.16,VALID,0,VALID,103.207,VALID,0,VALID,23.5771,VALID,355,VALID,0,
2010-11-17, 03:29:04,VALID,1009.16,VALID,0,VALID,103.176,VALID,0.105969,VALID,23.5771,VALID,355,VALID,0,
2010-11-17, 03:30:04,VALID,1009.15,VALID,0.5,VALID,103.192,VALID,0,VALID,23.5363,VALID,342,VALID,0,
2010-11-17, 03:31:04,VALID,1009.15,VALID,0,VALID,103.176,VALID,0,VALID,23.5363,VALID,342,VALID,0,
2010-11-17, 03:32:04,VALID,1009.14,VALID,0,VALID,103.169,VALID,0,VALID,23.5576,VALID,342,VALID,0,
2010-11-17, 03:33:04,VALID,1009.15,VALID,0,VALID,103.184,VALID,0,VALID,23.5363,VALID,342,VALID,0,
2010-11-17, 03:34:04,VALID,1009.14,VALID,0,VALID,103.146,VALID,0.105969,VALID,23.5771,VALID,342,VALID,0,
2010-11-17, 03:35:04,VALID,1009.12,VALID,0,VALID,103.131,VALID,0,VALID,23.5576,VALID,342,VALID,0,
2010-11-17, 03:36:04,VALID,1009.15,VALID,0,VALID,103.131,VALID,0.105969,VALID,23.5771,VALID,342,VALID,0,
2010-11-17, 03:37:04,VALID,1009.14,VALID,0,VALID,103.1,VALID,0,VALID,23.5558,VALID,342,VALID,0,
2010-11-17, 03:38:04,VALID,1009.1,VALID,0,VALID,103.123,VALID,0,VALID,23.5771,VALID,342,VALID,0,
2010-11-17, 03:39:04,VALID,1009.11,VALID,0,VALID,103.123,VALID,0,VALID,23.5771,VALID,342,VALID,0,
2010-11-17, 03:40:04,VALID,1009.11,VALID,0.5,VALID,103.108,VALID,0,VALID,23.5771,VALID,342,VALID,0,
2010-11-17, 03:41:04,VALID,1009.08,VALID,0,VALID,103.115,VALID,0,VALID,23.5558,VALID,342,VALID,0,
2010-11-17, 03:42:04,VALID,1009.09,VALID,0,VALID,103.093,VALID,0,VALID,23.5576,VALID,342,VALID,0,
2010-11-17, 03:43:04,VALID,1009.08,VALID,0,VALID,103.085,VALID,0,VALID,23.5576,VALID,342,VALID,0,
2010-11-17, 03:44:04,VALID,1009.08,VALID,0,VALID,103.085,VALID,0.105969,VALID,23.5771,VALID,342,VALID,0,
2010-11-17, 03:45:04,VALID,1009.11,VALID,0,VALID,103.085,VALID,0,VALID,23.5576,VALID,342,VALID,0.178906,
2010-11-17, 03:46:04,VALID,1009.13,VALID,0,VALID,103.093,VALID,0,VALID,23.5381,VALID,342,VALID,0.165234,
2010-11-17, 03:47:04,VALID,1009.13,VALID,0,VALID,103.062,VALID,0,VALID,23.5576,VALID,342,VALID,0.114844,
2010-11-17, 03:48:04,VALID,1009.16,VALID,0,VALID,103.062,VALID,0,VALID,23.5576,VALID,342,VALID,0.0652344,
2010-11-17, 03:49:04,VALID,1009.12,VALID,0,VALID,103.07,VALID,0,VALID,23.5381,VALID,51,VALID,0.199219,
2010-11-17, 03:50:04,VALID,1009.13,VALID,0.5,VALID,103.07,VALID,0,VALID,23.5169,VALID,316,VALID,0,